F1ZRP-13 Weather Reports


Display with metric or nautical units.
time (UTC)temp
F
wind
direction
speed
MPH
gust
MPH
rain 1hr
in
rain 24hr
in
rain mn
in
humidity
%
barometer
mb
20260506061939 52 0.0 0.0 0.00 0.00 0.00 96 1006.8
20260506050350 51 0.0 0.0 0.00 0.00 0.00 96 1006.5
20260506044545 51 0.0 0.0 0.00 0.00 0.00 96 1006.4
20260506043122 51 0.0 0.0 0.00 0.00 0.00 96 1006.5
20260506041918 51 0.0 0.0 0.00 0.00 0.00 96 1006.5
20260506035015 51 0.0 0.0 0.00 0.00 0.00 96 1006.7
20260506033817 51 0.0 0.0 0.00 0.00 0.00 96 1006.8
20260506032814 51 0.0 0.0 0.00 0.00 0.00 96 1006.8
20260506031356 51 0.0 0.0 0.00 0.00 0.00 96 1007.0
20260506025756 51 0.0 0.0 0.00 0.00 0.00 96 1007.1
20260506024245 51 0.0 0.0 0.00 0.00 0.00 96 1007.0
20260506022600 51 0.0 0.0 0.00 0.00 0.00 96 1007.0
20260506020703 52 0.0 0.0 0.00 0.00 0.00 96 1007.0
20260506015236 52 0.0 0.0 0.00 0.00 0.00 96 1006.9
20260506013548 52 0.0 0.0 0.00 0.00 0.00 96 1007.0
20260506011923 52 0.0 0.0 0.00 0.00 0.00 96 1007.2
20260506010058 52 0.0 0.0 0.00 0.00 0.00 96 1007.4
20260506004546 53 0.0 0.0 0.00 0.00 0.00 96 1007.6
20260506002934 53 0.0 0.0 0.00 0.00 0.00 96 1007.7
20260506001201 53 0.0 0.0 0.00 0.00 0.00 96 1007.9
20260506000116 52 0.0 0.0 0.00 0.00 0.00 96 1008.0
20260505234407 52 0.0 0.0 0.00 0.00 0.00 96 1008.0
20260505232929 52 0.0 0.0 0.00 0.00 0.00 96 1008.1
20260505231331 52 0.0 0.0 0.00 0.00 0.00 96 1008.1
20260505225700 53 0.0 0.0 0.00 0.00 0.00 96 1008.1
20260505224149 53 0.0 0.0 0.00 0.00 0.00 96 1008.1
20260505222657 54 0.0 0.0 0.00 0.00 0.00 96 1008.1
20260505221213 54 0.0 0.0 0.00 0.00 0.00 96 1008.2
20260505215506 54 0.0 0.0 0.00 0.00 0.00 96 1008.3
20260505214145 54 0.0 0.0 0.00 0.00 0.00 96 1008.4
20260505212619 54 0.0 0.0 0.00 0.00 0.00 96 1008.4
20260505211032 54 0.0 0.0 0.00 0.00 0.00 96 1008.4
20260505205635 54 0.0 0.0 0.00 0.00 0.00 96 1008.5
20260505204120 54 0.0 0.0 0.00 0.00 0.00 96 1008.5
20260505202458 55 0.0 0.0 0.00 0.00 0.00 96 1008.6
20260505201021 55 0.0 0.0 0.00 0.00 0.00 96 1008.4
20260505195547 55 0.0 0.0 0.00 0.00 0.00 96 1008.3
20260505194127 55 0.0 0.0 0.00 0.00 0.00 95 1008.3
20260505192442 55 0.0 0.0 0.00 0.00 0.00 95 1008.1
20260505190610 55 0.0 0.0 0.00 0.00 0.00 95 1007.9
20260505184901 56 0.0 0.0 0.00 0.00 0.00 95 1008.0
20260505182911 55 0.0 0.0 0.00 0.00 0.00 95 1008.0
20260505181332 56 0.0 0.0 0.00 0.00 0.00 95 1007.9
20260505175553 56 0.0 0.0 0.00 0.00 0.00 94 1008.0
20260505173801 56 0.0 0.0 0.00 0.00 0.00 94 1008.1
20260505172052 56 0.0 0.0 0.00 0.00 0.00 94 1008.2
20260505170834 56 0.0 0.0 0.00 0.00 0.00 94 1008.2
20260505165011 56 0.0 0.0 0.00 0.00 0.00 94 1008.3
20260505163916 57 0.0 0.0 0.00 0.00 0.00 93 1008.2
20260505162048 57 0.0 0.0 0.00 0.00 0.00 93 1008.3
20260505160834 57 0.0 0.0 0.00 0.00 0.00 93 1008.3
20260505152425 57 0.0 0.0 0.00 0.00 0.00 93 1008.6
20260505150511 56 0.0 0.0 0.00 0.00 0.00 93 1008.6
20260505140425 57 0.0 0.0 0.00 0.00 0.00 93 1009.1
20260505124704 56 0.0 0.0 0.00 0.00 0.00 93 1009.6
20260505122942 56 0.0 0.0 0.00 0.00 0.00 93 1009.7
20260505121014 56 0.0 0.0 0.00 0.00 0.00 93 1009.8
20260505115637 56 0.0 0.0 0.00 0.00 0.00 93 1009.8
20260505114254 55 0.0 0.0 0.00 0.00 0.00 92 1009.9
20260505112659 56 0.0 0.0 0.00 0.00 0.00 92 1010.0
20260505111337 56 0.0 0.0 0.00 0.00 0.00 91 1010.0
20260505101159 59 0.0 0.0 0.00 0.00 0.00 79 1010.0
20260505095524 60 0.0 0.0 0.00 0.00 0.00 76 1010.0
20260505093701 61 0.0 0.0 0.00 0.00 0.00 76 1010.0
20260505092011 61 0.0 0.0 0.00 0.00 0.00 75 1010.0
20260505090147 62 0.0 0.0 0.00 0.00 0.00 74 1010.1
20260505084206 62 0.0 0.0 0.00 0.00 0.00 76 1010.1
20260505082534 61 0.0 0.0 0.00 0.00 0.00 77 1010.1
20260505080912 60 0.0 0.0 0.00 0.00 0.00 79 1010.2
20260505075327 60 0.0 0.0 0.00 0.00 0.00 80 1010.4
20260505073703 59 0.0 0.0 0.00 0.00 0.00 81 1010.5
20260505072156 58 0.0 0.0 0.00 0.00 0.00 82 1010.7
20260505070820 58 0.0 0.0 0.00 0.00 0.00 83 1010.8